Weather History for LMML - January, 2013

Change the Weather History Date:

Saturday, January 26, 2013

  Actual Average Record
Temperature  
Mean Temperature 52 °F -  
Max Temperature 57 °F 60 °F 122 °F (2003)
Min Temperature 46 °F 49 °F 41 °F (2005)
Degree Days  
Heating Degree Days 14    
Growing Degree Days 2 (Base 50)    
Moisture  
Dew Point 43 °F    
Average Humidity 71    
Maximum Humidity 82    
Minimum Humidity 55    
Precipitation  
Precipitation 0.03 in 0.09 in - ()
Sea Level Pressure  
Sea Level Pressure 29.71 in    
Wind  
Wind Speed 16 mph ()    
Max Wind Speed 28 mph    
Max Gust Speed 34 mph    
Visibility 6.3 miles    
Events Rain , Thunderstorm    
Averages and records for this station are not official NWS values.
T = Trace of Precipitation, MM = Missing Value Source: Averaged Metar Reports

Daily Weather History Graph

Daily Weather History Graph

Search for Another Location

Airport or City:

Trip Planner

Search our weather history database for the weather conditions in past years. The results will help you decide how hot, cold, wet, or windy it might be!

Date:

Astronomy

Jan. 26, 2013 Rise Set
Actual Time 7:06 AM CET 5:23 PM CET
Civil Twilight 6:39 AM CET 5:50 PM CET
Nautical Twilight 6:08 AM CET 6:21 PM CET
Astronomical Twilight 5:38 AM CET 6:51 PM CET
Moon 4:59 PM CET 6:14 AM CET
Length of Visible Light 11h 10m
Length of Day
10h 16m
Waxing Gibbous, 99% of the Moon is Illuminated
Jan 26
Waxing Gibbous
Jan 27
Full
Feb 3
Last Quarter
Feb 10
New
Feb 17
First Quarter

Hourly Weather History & Observations

Time (CET) Temp. Dew Point Humidity Pressure Visibility Wind Dir Wind Speed Gust Speed Precip Events Conditions
12:00 AM 51.8 °F 42.8 °F 71% 29.62 in 6.2 mi NW 21.9 mph - N/A Rain Heavy Rain Showers
12:01 AM 51.8 °F 42.8 °F 71% 29.62 in 6.2 mi NW 21.9 mph - N/A Rain Rain Showers
12:02 AM 51.8 °F 42.8 °F 71% 29.62 in 6.2 mi NW 21.9 mph - N/A Rain Light Rain Showers
12:11 AM 51.8 °F 44.6 °F 76% 29.62 in 6.2 mi NNW 18.4 mph - N/A Rain Heavy Rain Showers
12:13 AM 51.8 °F 44.6 °F 76% 29.62 in 6.2 mi NNW 18.4 mph - N/A Rain Rain Showers
12:14 AM 51.8 °F 44.6 °F 76% 29.62 in 6.2 mi NW 18.4 mph - N/A Rain Light Rain Showers
12:15 AM 51.8 °F 44.6 °F 76% 29.62 in 6.2 mi NW 18.4 mph - N/A Rain Light Rain Showers
12:41 AM 51.8 °F 44.6 °F 76% 29.62 in 6.2 mi NW 18.4 mph 34.5 mph N/A Rain Heavy Rain Showers
12:43 AM 51.8 °F 44.6 °F 76% 29.62 in 6.2 mi NW 26.5 mph - N/A Rain Rain Showers
12:44 AM 51.8 °F 44.6 °F 76% 29.62 in 6.2 mi NW 27.6 mph - N/A Rain Light Rain Showers
12:45 AM 51.8 °F 44.6 °F 76% 29.62 in 6.2 mi NW 26.5 mph - N/A Rain Rain Showers
1:00 AM 51 °F 45 °F 74% 29.63 in 6 mi NW 20.7 mph - - Rain Light Rain Showers
1:15 AM 50.0 °F 44.6 °F 82% 29.62 in - NW 16.1 mph - N/A   Clear
1:45 AM 51.8 °F 44.6 °F 76% 29.62 in 6.2 mi NW 16.1 mph - N/A   Partly Cloudy
2:15 AM 51.8 °F 44.6 °F 76% 29.62 in 6.2 mi NNW 17.3 mph - N/A   Scattered Clouds
2:45 AM 51.8 °F 44.6 °F 76% 29.62 in 6.2 mi NNW 19.6 mph - N/A   Unknown
3:15 AM 50.0 °F 44.6 °F 82% 29.62 in 6.2 mi NNW 18.4 mph - N/A   Scattered Clouds
3:45 AM 50.0 °F 44.6 °F 82% 29.62 in 6.2 mi NNW 16.1 mph - N/A   Partly Cloudy
4:00 AM 51 °F 44 °F 70% 29.64 in 7 mi NNW 17.3 mph - -   Scattered Clouds
4:15 AM 50.0 °F 44.6 °F 82% 29.62 in - NNW 16.1 mph - N/A   Clear
4:45 AM 50.0 °F 42.8 °F 76% 29.65 in 6.2 mi NNW 15.0 mph - N/A   Partly Cloudy
5:15 AM 50.0 °F 42.8 °F 76% 29.65 in 6.2 mi NW 16.1 mph - N/A   Partly Cloudy
5:45 AM 50.0 °F 41.0 °F 71% 29.65 in 6.2 mi NNW 15.0 mph - N/A   Partly Cloudy
6:15 AM 50.0 °F 42.8 °F 76% 29.65 in 6.2 mi NW 15.0 mph - N/A   Partly Cloudy
6:45 AM 50.0 °F 41.0 °F 71% 29.68 in 6.2 mi NNW 13.8 mph - N/A   Partly Cloudy
7:00 AM 50 °F 42 °F 65% 29.69 in 7 mi NNW 12.7 mph - -   Partly Cloudy
7:15 AM 50.0 °F 42.8 °F 76% 29.68 in 6.2 mi NNW 15.0 mph - N/A   Partly Cloudy
7:45 AM 51.8 °F 44.6 °F 76% 29.68 in 6.2 mi NW 13.8 mph - N/A   Partly Cloudy
8:15 AM 51.8 °F 44.6 °F 76% 29.68 in 6.2 mi NNW 13.8 mph - N/A   Scattered Clouds
8:45 AM 53.6 °F 42.8 °F 67% 29.71 in 6.2 mi NNW 16.1 mph - N/A   Scattered Clouds
9:15 AM 53.6 °F 42.8 °F 67% 29.71 in 6.2 mi NNW 21.9 mph - N/A   Mostly Cloudy
9:45 AM 51.8 °F 44.6 °F 76% 29.71 in 6.2 mi NW 17.3 mph - N/A   Scattered Clouds
10:00 AM 53 °F 46 °F 71% 29.74 in 7 mi NNW 11.5 mph - - Rain Light Rain Showers
10:15 AM 53.6 °F 44.6 °F 72% 29.74 in 6.2 mi NW 17.3 mph - N/A   Scattered Clouds
10:45 AM 55.4 °F 44.6 °F 67% 29.74 in 6.2 mi NNW 21.9 mph - N/A   Scattered Clouds
11:15 AM 50.0 °F 42.8 °F 76% 29.74 in 6.2 mi NNW 15.0 mph - N/A   Scattered Clouds
11:45 AM 55.4 °F 46.4 °F 72% 29.74 in 6.2 mi NW 21.9 mph - N/A   Scattered Clouds
12:15 PM 57.2 °F 46.4 °F 67% 29.74 in 6.2 mi NW 18.4 mph - N/A   Mostly Cloudy
12:45 PM 51.8 °F 42.8 °F 71% 29.74 in 6.2 mi NW 18.4 mph - N/A   Scattered Clouds
1:00 PM 54 °F 42 °F 55% 29.75 in 9 mi NW 17.3 mph - - Rain Light Rain Showers
1:15 PM 55.4 °F 42.8 °F 63% 29.74 in 6.2 mi NW 21.9 mph - N/A   Scattered Clouds
1:45 PM 53.6 °F 41.0 °F 62% 29.74 in 6.2 mi NW 17.3 mph - N/A   Scattered Clouds
2:15 PM 53.6 °F 42.8 °F 67% 29.74 in 6.2 mi NW 17.3 mph - N/A   Mostly Cloudy
2:45 PM 55.4 °F 44.6 °F 67% 29.74 in 6.2 mi NNW 17.3 mph - N/A   Scattered Clouds
3:15 PM 55.4 °F 42.8 °F 63% 29.74 in 6.2 mi NNW 18.4 mph - N/A   Scattered Clouds
3:45 PM 55.4 °F 42.8 °F 63% 29.74 in 6.2 mi NNW 17.3 mph - N/A   Scattered Clouds
4:00 PM 55 °F 43 °F 55% 29.75 in 9 mi NW 16.1 mph - -   Partly Cloudy
4:15 PM 53.6 °F 42.8 °F 67% 29.74 in 6.2 mi NNW 12.7 mph - N/A   Scattered Clouds
4:45 PM 53.6 °F 42.8 °F 67% 29.74 in 6.2 mi NW 12.7 mph - N/A   Scattered Clouds
5:15 PM 51.8 °F 41.0 °F 67% 29.74 in 6.2 mi NW 13.8 mph - N/A   Scattered Clouds
5:32 PM 51.8 °F 39.2 °F 62% 29.74 in 5.6 mi NW 12.7 mph - N/A Thunderstorm Thunderstorm
5:45 PM 51.8 °F 41.0 °F 67% 29.74 in 5.6 mi NW 12.7 mph - N/A Thunderstorm Thunderstorm
6:15 PM 51.8 °F 41.0 °F 67% 29.77 in 6.2 mi NNW 12.7 mph - N/A   Scattered Clouds
6:45 PM 48.2 °F 39.2 °F 71% 29.77 in 6.2 mi NW 5.8 mph - N/A   Partly Cloudy
7:00 PM 49 °F 40 °F 64% 29.80 in 7 mi NW 6.9 mph - -   Partly Cloudy
7:15 PM 50.0 °F 41.0 °F 71% 29.80 in 6.2 mi NW 8.1 mph - N/A   Scattered Clouds
7:45 PM 50.0 °F 41.0 °F 71% 29.80 in 6.2 mi NW 6.9 mph - N/A   Scattered Clouds
8:15 PM 50.0 °F 41.0 °F 71% 29.83 in 6.2 mi NW 9.2 mph - N/A   Scattered Clouds
8:45 PM 50.0 °F 39.2 °F 66% 29.83 in 6.2 mi NW 9.2 mph - N/A   Scattered Clouds
9:15 PM 48.2 °F 41.0 °F 76% 29.83 in 6.2 mi NW 11.5 mph - N/A   Partly Cloudy
9:45 PM 50.0 °F 39.2 °F 66% 29.83 in 6.2 mi NW 9.2 mph - N/A   Partly Cloudy
10:00 PM 49 °F 40 °F 62% 29.86 in 7 mi NW 8.1 mph - -   Partly Cloudy
10:15 PM 48.2 °F 41.0 °F 76% 29.83 in - NW 9.2 mph - N/A   Clear
10:45 PM 50.0 °F 39.2 °F 66% 29.86 in - NW 9.2 mph - N/A   Clear
11:15 PM 48.2 °F 39.2 °F 71% 29.86 in - NW 11.5 mph - N/A   Clear
11:45 PM 48.2 °F 39.2 °F 71% 29.86 in - NW 9.2 mph - N/A   Clear